Lexington Weather

Lexington, Massachusetts, USA

46°F
5/12/2021 3:01am 
  • Lexington Conditions: Clear
  • Temperature: 45.7°F / 7.6°CColder 1.4°F than last hour.
  • Dew Point: 31.8°FIncreased 0.9°Fsince last hour.
  • Relative Humidity: 58%Increased 5.0% since last hour.
  • Wind: Wind from WSW WSW 1 mph, 10-min avg: 1 mph, gust: 4 mph
  • Barometer: 29.92 in Steady
  • Visibility: 10 miles
  • Rain Today: 0.00 in
  •   

Regional Weather Roundup
for Boston / Norton, MA

        
000
ASUS41 KBOX 090505
RWRBOX

REGIONAL WEATHER ROUNDUP
NATIONAL WEATHER SERVICE BOSTON/NORTON MA
100 AM EDT SUN MAY 09 2021

NOTE:  "FAIR" INDICATES FEW OR NO CLOUDS BELOW 12,000 FEET WITH NO 
SIGNIFICANT WEATHER AND/OR OBSTRUCTIONS TO VISIBILITY.

MAZALL-090600-
EASTERN MASSACHUSETTS
  
CITY           SKY/WX    TMP DP  RH WIND       PRES   REMARKS
BOSTON         CLOUDY    53  39  59 W14       29.87F                  
BEVERLY        MOCLDY    50  38  63 W8        29.85S                  
LAWRENCE       CLOUDY    52  38  58 W9        29.88R                  
BEDFORD        CLOUDY    50  39  66 W7        29.87S                  
BLUE HILL        N/A     46  39  76 W12       29.87S                  
NORWOOD        CLOUDY    50  40  68 SW6       29.89S                  
MARSHFIELD     CLOUDY    50  43  76 SW10G18   29.88S                  
PLYMOUTH       CLOUDY    48  40  73 SW12      29.89S                  
TAUNTON        PTCLDY    47  41  80 SW5       29.90F                  
NEW BEDFORD    PTCLDY    47  40  76 W8        29.90F                  
$$

MAZALL-090600-
CAPE COD AND THE ISLANDS
  
CITY           SKY/WX    TMP DP  RH WIND       PRES   REMARKS
FALMOUTH       PTCLDY    48  39  71 SW12      29.90F                  
HYANNIS        CLOUDY    50  41  71 SW14      29.88F                  
CHATHAM        CLOUDY    50  39  66 W9G20     29.90F                  
PROVINCETOWN   MOCLDY    48  43  82 SW14      29.89S                  
NANTUCKET      MOCLDY    48  41  76 W14       29.92F                  
MARTHAS VNYRD  PTCLDY    47  41  80 SW5       29.92F                  
$$
 
MAZALL-090600-
CENTRAL AND WESTERN MASSACHUSETTS
  
CITY           SKY/WX    TMP DP  RH WIND       PRES   REMARKS
WORCESTER      PTCLDY    46  38  73 W13       29.89S                  
FITCHBURG      MOCLDY    50  39  66 W10G18    29.89S                  
ORANGE         CLOUDY    48  40  73 NW6       29.91F                  
SPRINGFIELD    PTCLDY    45  38  79 CALM      29.92S                  
WESTFIELD      CLEAR     48  41  76 NW6       29.93S                  
NORTH ADAMS    CLOUDY    47  41  80 W7        29.93S                  
PITTSFIELD     CLOUDY    44  41  89 W6        29.93R                  
$$
 
RIZALL-090600-
RHODE ISLAND
  
CITY           SKY/WX    TMP DP  RH WIND       PRES   REMARKS
PROVIDENCE     PTCLDY    47  40  76 W6        29.92S                  
NEWPORT        CLEAR     46  39  76 VRB3      29.92F                  
BLOCK ISLAND   CLEAR     46  42  86 W10       29.95S                  
SMITHFIELD       N/A     45  42  89 W7        29.91S                  
WESTERLY       CLEAR     44  39  82 W3        29.94S                  
$$
 
CTZALL-090600-
CONNECTICUT
  
CITY           SKY/WX    TMP DP  RH WIND       PRES   REMARKS
BRADLEY INTL   PTCLDY    47  40  76 W6        29.93S                  
HARTFORD       CLEAR     47  41  80 CALM      29.94S                  
BRIDGEPORT     CLEAR     47  42  83 W5        29.97R                  
DANBURY        PTCLDY    43  39  86 W5        29.98R                  
GROTON         CLEAR     46  40  79 W7        29.94S                  
NEW HAVEN      CLEAR     50  44  80 W3        29.96S                  
CHESTER        FAIR      43  43 100 VRB5      29.95R                  
MERIDEN        CLEAR     40  38  93 S3        29.96R                  
WILLIMANTIC    CLEAR     46  41  82 CALM      29.93S                  
OXFORD         PTCLDY    42  42 100 W3        29.96R                  
$$

MEZ002-015-021-024-NHZ003-005-008-011-012-014-VTZ005-008-090600-
NORTHERN NEW ENGLAND
  
CITY           SKY/WX    TMP DP  RH WIND       PRES   REMARKS
PORTLAND ME    CLOUDY    46  39  76 NW7       29.80S                  
BANGOR ME      MOCLDY    44  33  65 W6        29.76S                  
CONCORD NH     MOCLDY    49  35  58 NW3       29.86R                  
MANCHESTER NH  CLOUDY    53  37  54 W7        29.85R                  
NASHUA NH      CLOUDY    52  39  61 W9        29.87S                  
PORTSMOUTH NH  CLOUDY    51  35  55 W6        29.84S                  
JAFFREY NH     MOCLDY    47  39  74 VRB5      29.89S                  
KEENE NH       PTCLDY    42  39  89 CALM      29.90F                  
BURLINGTON VT  PTCLDY    48  39  71 N7        29.90                   
MT. WASHINGTON FLURRIES  23  21  93 NW40G48     N/A  WCI   3          
$$

NYZ052-076-090600-
EASTERN NEW YORK
  
CITY           SKY/WX    TMP DP  RH WIND       PRES   REMARKS
ALBANY         MOCLDY    45  40  82 W14       29.97R                  
NEW YORK CITY  CLEAR     51  40  65 NW12      29.99S                  
$$
 
ANZALL-090600-
MARINE OBSERVATIONS
  
STATION/POSITION TIME  TEMP    WIND        PRES    VSBY  WAVE
                       AIR SEA DIR/SP/G                  HT/PER
                 (UTC) (F)     (DEG/KT/KT) (MB)    (MI)  (FT/S)
BOSTON BUOY      0450   49 47  240/ 14/ 19 1011.1F         7/10
BUZZARDS BAY     0400          250/ 15/ 16 1014.6R
NANTUCKET SOUND  0450      52                N/A           2/ 4
MASS BAY-STELLWA 0404   50     230/ 16/ 21 1009.8F  1 7/8  6/11
ISLE OF SHOALS   0400   51     230/ 19/ 21 1009.4F
S OF BLOCK IS    0426      49                N/A           4/11
$$

......................KEY.........................
  SKY/WX - SKY CONDITION/PRESENT WEATHER
  TMP    - TEMPERATURE IN FAHRENHEIT
  DWPT   - DEWPOINT IN FAHRENHEIT
  RH     - RELATIVE HUMIDITY IN PERCENT
  WIND   - DIRECTION AND SPEED IN MPH
  PRES   - MEAN SEA LEVEL PRESSURE IN INCHES OF HG
  WCI    - WIND CHILL INDEX
  VSB    - VISIBILITY IN MILES
  HX     - HEAT INDEX
  TC     - TEMPERATURE IN CELSIUS
  VRB    - VARIABLE WIND DIRECTION
  N/A    - NOT AVAILABLE
  
      

Other recent Regional Weather Roundups

Wed May 12, 2:04am

Wed May 12, 1:04am

Wed May 12, 12:05am

Tue May 11, 11:05pm

Tue May 11, 10:04pm

Tue May 11, 9:05pm

Tue May 11, 8:05pm

Tue May 11, 7:04pm

Tue May 11, 6:04pm

Tue May 11, 5:04pm

Tue May 11, 4:05pm

Tue May 11, 3:04pm

Tue May 11, 2:05pm

Tue May 11, 1:04pm

Tue May 11, 12:05pm

Tue May 11, 11:05am

Tue May 11, 10:04am

Tue May 11, 9:04am

Tue May 11, 8:04am

Tue May 11, 7:05am

Tue May 11, 6:04am

Tue May 11, 5:04am

Tue May 11, 4:04am

Tue May 11, 3:04am

Tue May 11, 2:04am

Tue May 11, 1:04am

Tue May 11, 12:04am

Mon May 10, 11:04pm

Mon May 10, 10:04pm

Mon May 10, 9:05pm

Mon May 10, 8:04pm

Mon May 10, 7:05pm

Mon May 10, 6:04pm

Mon May 10, 5:04pm

Mon May 10, 4:04pm

Mon May 10, 3:04pm

Mon May 10, 2:04pm

Mon May 10, 1:04pm

Mon May 10, 12:04pm

Mon May 10, 11:05am

Mon May 10, 10:04am

Mon May 10, 9:04am

Mon May 10, 8:04am

Mon May 10, 7:04am

Mon May 10, 6:04am

Mon May 10, 5:05am

Mon May 10, 4:04am

Mon May 10, 3:04am

Mon May 10, 2:04am

Mon May 10, 1:04am

Mon May 10, 12:04am

Sun May 9, 11:04pm

Sun May 9, 10:04pm

Sun May 9, 9:04pm

Sun May 9, 8:04pm

Sun May 9, 7:05pm

Sun May 9, 6:04pm

Sun May 9, 5:04pm

Sun May 9, 4:04pm

Sun May 9, 3:04pm

Sun May 9, 2:04pm

Sun May 9, 1:05pm

Sun May 9, 12:04pm

Sun May 9, 11:05am

Sun May 9, 10:04am

Sun May 9, 9:04am

Sun May 9, 8:04am

Sun May 9, 7:04am

Sun May 9, 6:04am

Sun May 9, 5:04am

Sun May 9, 4:04am

Sun May 9, 3:04am

Sun May 9, 2:04am

Sun May 9, 12:04am

Sat May 8, 11:05pm

Sat May 8, 10:04pm

Sat May 8, 9:05pm

Sat May 8, 8:04pm

Sat May 8, 7:04pm

Sat May 8, 6:04pm

Sat May 8, 5:05pm

Sat May 8, 4:04pm

Sat May 8, 3:05pm

Sat May 8, 2:05pm

Sat May 8, 1:05pm

Sat May 8, 12:04pm

Sat May 8, 11:05am

Sat May 8, 10:04am

Sat May 8, 9:04am

Sat May 8, 8:04am

Sat May 8, 7:04am

Sat May 8, 6:04am

Sat May 8, 5:04am

Sat May 8, 4:04am

Sat May 8, 3:04am

Sat May 8, 2:04am

Sat May 8, 1:05am

Sat May 8, 12:04am

Fri May 7, 11:04pm

Fri May 7, 10:05pm

Fri May 7, 9:04pm

Fri May 7, 8:04pm

Fri May 7, 7:05pm

Fri May 7, 6:04pm

Fri May 7, 5:05pm

Fri May 7, 4:04pm

Fri May 7, 3:04pm

Fri May 7, 2:05pm

Fri May 7, 1:04pm

Fri May 7, 12:04pm

Fri May 7, 11:05am

Fri May 7, 10:04am

Fri May 7, 9:04am

Fri May 7, 8:05am

Fri May 7, 7:04am

Fri May 7, 6:04am

Fri May 7, 5:04am

Fri May 7, 4:04am

Fri May 7, 3:04am

Fri May 7, 2:05am

Fri May 7, 1:04am

Fri May 7, 12:05am

Thu May 6, 11:04pm

Thu May 6, 10:04pm

Thu May 6, 9:05pm

Thu May 6, 8:04pm

Thu May 6, 7:04pm

Thu May 6, 6:04pm

Thu May 6, 5:05pm

Thu May 6, 4:04pm

Thu May 6, 3:04pm

Thu May 6, 2:05pm

Thu May 6, 1:04pm

Thu May 6, 12:04pm

Thu May 6, 11:04am

Thu May 6, 10:04am

Thu May 6, 9:04am

Thu May 6, 8:04am

Thu May 6, 7:04am

Thu May 6, 6:04am

Thu May 6, 5:04am

Thu May 6, 4:04am

Thu May 6, 3:04am

Thu May 6, 2:05am

Thu May 6, 1:04am

Thu May 6, 12:05am

Wed May 5, 11:04pm

Wed May 5, 10:04pm

Wed May 5, 9:05pm

Wed May 5, 8:04pm

Wed May 5, 7:05pm

Wed May 5, 6:04pm

Wed May 5, 5:04pm

Wed May 5, 4:04pm

Wed May 5, 3:04pm

Wed May 5, 2:05pm

Wed May 5, 1:05pm

Wed May 5, 12:04pm

Wed May 5, 11:05am

Wed May 5, 10:04am

Wed May 5, 9:04am

Wed May 5, 8:04am

Wed May 5, 7:04am

Wed May 5, 6:05am

Wed May 5, 5:04am

Wed May 5, 4:04am

Wed May 5, 3:04am

Meta data:

ID: 3496982d-9f06-4e95-9a2c-3d3f7d2851ba
Link: https://api.weather.gov/products/3496982d-9f06-4e95-9a2c-3d3f7d2851ba